Hourly Data Report for October 08, 2016

All times are specified in Local Standard Time (LST). Add 1 hour to adjust for Daylight Saving Time where and when it is observed.

KAMLOOPS A
BRITISH COLUMBIA

50°42'09.000" N
120°26'55.000" W
345.30 m
1163781
71887
YKA

Download Data

Hourly Data (October 2016)
Hourly Data Report for October 8, 2016
Temp Definition
°C
Dew Point Temp Definition
°C
Rel Hum Definition
%
Wind Dir Definition
10's deg

Wind Spd Definition
km/h
Visibility Definition
km
Stn Press Definition
kPa
Hmdx Definition


Wind Chill Definition


Weather Definition


TIME
00:00 Legend Double Dagger 8.8 3.5 69 26 3 64.4 97.59     LegendNANA
01:00 Legend Double Dagger 8.8 4.1 72 36 2 64.4 97.59     Cloudy
02:00 Legend Double Dagger 8.3 5.3 81 36 3 64.4 97.57     LegendNANA
03:00 Legend Double Dagger 8.7 4.7 76 14 5 64.4 97.53     LegendNANA
04:00 Legend Double Dagger 8.4 5.4 81 11 13 64.4 97.51     Cloudy
05:00 Legend Double Dagger 8.6 5.9 83 11 13 64.4 97.47     LegendNANA
06:00 Legend Double Dagger 8.2 5.7 84 9 11 48.3 97.46     Rain
07:00 Legend Double Dagger 7.7 6.2 90 8 15 24.1 97.40     Rain
08:00 Legend Double Dagger 7.4 5.7 89 7 7 19.3 97.31     Rain
09:00 Legend Double Dagger 7.4 6.0 91 36 1 16.1 97.24     Rain
10:00 Legend Double Dagger 7.2 4.2 81 5 12 16.1 97.13     Rain
11:00 Legend Double Dagger 6.5 4.0 84 35 7 9.7 97.12     Rain
12:00 Legend Double Dagger 6.1 4.1 87 31 8 24.1 97.05     Rain
13:00 Legend Double Dagger 6.3 3.8 84 32 8 40.2 97.00     Rain
14:00 Legend Double Dagger 6.2 3.4 82 24 5 48.3 96.97     Rain
15:00 Legend Double Dagger 6.0 4.0 87 34 5 64.4 96.98     Rain
16:00 Legend Double Dagger 5.9 4.1 88 3 3 48.3 96.95     Rain
17:00 Legend Double Dagger 5.8 4.1 89 36 2 32.2 96.91     Rain
18:00 Legend Double Dagger 5.5 4.0 90 32 3 32.2 96.87     Rain
19:00 Legend Double Dagger 5.5 4.3 92 30 4 40.2 96.82     Rain
20:00 Legend Double Dagger 5.8 4.6 92 36 2 40.2 96.82     LegendNANA
21:00 Legend Double Dagger 5.8 4.1 89 28 11 48.3 96.86     Rain
22:00 Legend Double Dagger 5.6 4.4 92 26 7 32.2 96.89     Rain
23:00 Legend Double Dagger 6.1 4.3 88 25 14 32.2 96.94     Rain

Notes on Data Quality.

Legend

  • E = Estimated
  • M = Missing
  • NA = Not Available
  • ‡ = Partner data that is not subject to review by the National Climate Archives
Date modified: